Location: Janeiro
(34.9957°N, 76.7652°W)
Time: 18:34:28
(UTC+00:00)

YAOGAN 6 - Pass Details

Date: 14 December 2019
Orbit: 466 x 505 km, 97.0° (Epoch: 26 January)

Event Time Altitude Azimuth Distance (km) Brightness Sun altitude
Rises 23:50:03 0° 188° (S) 2,507 6.5 -22.6°
Reaches altitude 10° 23:52:14 10° 198° (SSW) 1,640 5.6 -23.0°
Maximum altitude 23:55:25 31° 263° (W) 857 4.4 -23.6°
Drops below altitude 10° 23:58:39 10° 327° (NNW) 1,672 5.5 -24.3°
Sets 00:00:54 0° 338° (NNW) 2,564 6.4 -24.7°
